Regional Weather Roundup
Issued by NWS

Home | Current Version | Previous Version | Text Only | Print | Product List | Glossary On
Versions: 1 2 3 4 5 6 7 8 9 10 11 12 13 14 15 16 17 18 19 20 21 22 23 24 25 26 27 28 29 30 31 32 33 34 35 36 37 38 39 40 41 42 43 44 45 46 47 48 49 50
000
ASUS43 KFSD 221102
RWRSD

WEATHER ROUNDUP FOR SOUTH DAKOTA
NATIONAL WEATHER SERVICE SIOUX FALLS SD
600 AM CDT MON MAY 22 2017

NOTE: "FAIR" INDICATES FEW OR NO CLOUDS BELOW 12,000 FEET WITH NO
SIGNIFICANT WEATHER AND/OR OBSTRUCTIONS TO VISIBILITY.


SDZ001>005-009-010-012>017-221200-
NORTHWEST AND NORTH CENTRAL SOUTH DAKOTA

CITY           SKY/WX    TMP DP  RH WIND       PRES   REMARKS
BUFFALO          N/A     45  44  97 W10       29.93F
FAITH            N/A     47  47 100 NW17      29.98R
MOBRIDGE       MOCLDY    50  42  74 NW12      29.86F
$$

SDZ012>016-024>037-041>051-057-063-072>074-221200-
SOUTHWEST AND SOUTH CENTRAL SOUTH DAKOTA

CITY           SKY/WX    TMP DP  RH WIND       PRES   REMARKS
RAPID CTY ARPT CLOUDY    48  41  76 N17G35    30.03R
PIERRE         PTCLDY    45  41  86 W10       29.91F
CUSTER         CLOUDY    42  32  67 NW8       30.05F
ELLSWORTH AFB  CLOUDY    48  44  85 N16       30.03
PHILIP         CLOUDY    44  41  89 W10       29.98S
PINE RIDGE     CLEAR     40  39  97 W3        30.04F
SPEARFISH      CLOUDY    45  43  93 W9        30.05F
WINNER         FAIR      49  42  77 W9        29.96F
$$

SDZ004>011-016>023-039-040-221200-
NORTHEAST SOUTH DAKOTA

CITY           SKY/WX    TMP DP  RH WIND       PRES   REMARKS
ABERDEEN       CLEAR     34  32  92 SW5       29.87S FOG     WCI  30
WATERTOWN      CLEAR     36  35  96 CALM      29.87S
BROOKINGS      CLEAR     42  40  92 CALM      29.88F
SISSETON         N/A     40  38  93 NW7       29.88F
$$

SDZ017-020-022-023-036>040-048>070-221200-
SOUTHEAST SOUTH DAKOTA

CITY           SKY/WX    TMP DP  RH WIND       PRES   REMARKS
SIOUX FALLS    PTCLDY    49  45  86 W7        29.88F
HURON          CLEAR     45  41  86 SW6       29.89S
MITCHELL       CLEAR     47  44  90 W8        29.91F
YANKTON        CLEAR     52  45  77 S6        29.92S
$$

ABBREVIATIONS USED IN REMARKS
   TC - TEMPERATURE IN CELSIUS
  WCI - WIND CHILL INDEX
   HX - HEAT INDEX
  VSB - VISIBILITY





USA.gov is the U.S. government's official web portal to all federal, state and local government web resources and services.